FW4559 Weather Reports


time (UTC)temp
F
wind
direction
speed
knots
gust
knots
rain 1hr
in
rain 24hr
in
rain mn
in
humidity
%
barometer
mb
20260502203547 52 15 7.8 13.9 0.00 0.00 0.00 41 1011.3
20260502203046 52 338 5.2 16.5 0.00 0.00 0.00 42 1011.5
20260502202546 53 329 7.0 16.5 0.00 0.00 0.00 41 1011.4
20260502202049 54 321 8.7 16.5 0.00 0.00 0.00 39 1011.3
20260502201549 54 279 6.1 13.0 0.00 0.00 0.00 40 1011.4
20260502201045 54 120 6.1 15.6 0.00 0.00 0.00 38 1011.4
20260502200545 55 59 5.2 15.6 0.00 0.00 0.00 39 1011.3
20260502200044 55 23 4.3 10.4 0.00 0.00 0.00 37 1011.5
20260502195543 55 204 2.6 11.3 0.00 0.00 0.00 37 1011.4
20260502195043 55 346 5.2 11.3 0.00 0.00 0.00 36 1011.3
20260502194542 55 220 3.5 11.3 0.00 0.00 0.00 36 1011.4
20260502194045 55 359 3.5 11.3 0.00 0.00 0.00 37 1011.4
20260502193543 56 346 7.0 10.4 0.00 0.00 0.00 36 1011.5
20260502193049 56 328 2.6 12.2 0.00 0.00 0.00 35 1011.5
20260502192543 56 60 3.5 10.4 0.00 0.00 0.00 37 1011.5
20260502192040 55 342 3.5 11.3 0.00 0.00 0.00 37 1011.5
20260502191545 56 340 5.2 10.4 0.00 0.00 0.00 35 1011.6
20260502191039 56 191 4.3 8.7 0.00 0.00 0.00 38 1011.6
20260502190539 55 287 2.6 11.3 0.00 0.00 0.00 37 1011.6
20260502190038 55 330 3.5 11.3 0.00 0.00 0.00 38 1011.7
20260502185537 55 121 2.6 11.3 0.00 0.00 0.00 37 1011.7
20260502185037 55 82 2.6 11.3 0.00 0.00 0.00 39 1011.7
20260502184547 55 329 0.9 7.0 0.00 0.00 0.00 37 1011.7
20260502184036 54 234 1.7 9.6 0.00 0.00 0.00 36 1011.7
20260502183535 53 226 6.1 13.9 0.00 0.00 0.00 37 1011.8
20260502183037 54 319 7.8 13.9 0.00 0.00 0.00 37 1011.9
20260502182534 54 250 3.5 12.2 0.00 0.00 0.00 36 1011.7
20260502182038 54 290 4.3 12.2 0.00 0.00 0.00 37 1011.9
20260502181538 53 258 1.7 8.7 0.00 0.00 0.00 35 1011.9
20260502181033 53 287 1.7 8.7 0.00 0.00 0.00 35 1011.8
20260502180532 53 323 1.7 9.6 0.00 0.00 0.00 34 1012.0
20260502164026 51 275 1.7 7.0 0.00 0.00 0.00 38 1012.7
20260502163525 51 110 2.6 9.6 0.00 0.00 0.00 37 1012.9
20260502163028 51 23 5.2 9.6 0.00 0.00 0.00 37 1012.9
20260502162526 51 350 0.0 7.8 0.00 0.00 0.00 38 1013.0
20260502162025 52 66 0.9 12.2 0.00 0.00 0.00 37 1013.0
20260502161525 53 13 7.0 12.2 0.00 0.00 0.00 34 1013.1
20260502161024 53 62 0.9 6.1 0.00 0.00 0.00 36 1013.1
20260502160527 53 56 2.6 5.2 0.00 0.00 0.00 36 1013.1
20260502152017 47 13 7.0 12.2 0.00 0.00 0.00 43 1013.2
20260502151517 47 334 7.8 12.2 0.00 0.00 0.00 43 1013.2
20260502151016 47 49 3.5 7.8 0.00 0.00 0.00 44 1013.3
20260502150516 46 108 4.3 8.7 0.00 0.00 0.00 45 1013.3
20260502130507 43 4 3.5 10.4 0.00 0.00 0.00 52 1013.1
20260502123503 43 319 2.6 9.6 0.00 0.00 0.00 59 1013.0
20260502123003 43 318 5.2 9.6 0.00 0.00 0.00 60 1012.8
20260502122502 43 6 3.5 8.7 0.00 0.00 0.00 62 1012.7
20260502122003 43 13 2.6 8.7 0.00 0.00 0.00 63 1012.8
20260502121508 43 338 4.3 8.7 0.00 0.00 0.00 64 1012.8
20260502121101 43 25 4.3 8.7 0.00 0.00 0.00 64 1012.7
20260502120600 43 337 2.6 7.0 0.00 0.00 0.00 67 1012.5
20260502120104 43 330 1.7 7.8 0.00 0.00 0.00 68 1012.5
20260502115559 43 32 1.7 6.1 0.00 0.00 0.00 68 1012.6
20260502115100 43 347 1.7 6.1 0.00 0.00 0.00 69 1012.6
20260502114558 43 354 2.6 7.0 0.00 0.00 0.00 70 1012.6
20260502114056 43 18 3.5 7.8 0.00 0.00 0.00 71 1012.5
20260502113557 43 23 4.3 7.8 0.00 0.00 0.00 72 1012.8
20260502113055 43 26 3.5 7.0 0.00 0.00 0.00 73 1012.7
20260502112554 43 20 1.7 7.8 0.00 0.00 0.00 74 1012.7
20260502112054 43 331 4.3 7.8 0.00 0.00 0.00 74 1012.7
20260502111605 43 329 2.6 5.2 0.00 0.00 0.00 75 1012.7
20260502111055 43 331 1.7 5.2 0.00 0.00 0.00 75 1012.7
20260502110553 43 342 1.7 6.1 0.00 0.00 0.00 76 1012.4
20260502110053 43 315 2.6 7.8 0.00 0.00 0.00 76 1012.5
20260502105553 43 4 3.5 7.8 0.00 0.00 0.00 77 1012.5
20260502105052 43 347 3.5 7.8 0.00 0.00 0.00 77 1012.4
20260502104553 43 6 3.5 7.8 0.00 0.00 0.00 78 1012.4
20260502104051 43 331 3.5 7.8 0.00 0.00 0.00 79 1012.2
20260502103549 43 355 1.7 4.3 0.00 0.00 0.00 80 1012.5
20260502103102 43 5 1.7 5.2 0.00 0.00 0.00 80 1012.5
20260502102549 43 333 1.7 7.0 0.00 0.00 0.00 79 1012.4
20260502102048 43 353 3.5 7.0 0.00 0.00 0.00 79 1012.3
20260502101558 43 352 1.7 7.0 0.00 0.00 0.00 79 1012.4
20260502101048 43 347 3.5 7.8 0.00 0.00 0.00 79 1012.3
20260502100546 43 2 3.5 7.0 0.00 0.00 0.00 79 1012.4
20260502091038 44 355 2.6 8.7 0.00 0.00 0.00 77 1013.1
20260502090540 44 335 2.6 8.7 0.00 0.00 0.00 77 1013.0
20260502071527 46 1 2.6 7.0 0.00 0.00 0.00 80 1012.2
20260502071021 46 348 2.6 7.0 0.00 0.00 0.00 80 1012.2
20260502070521 46 317 2.6 5.2 0.00 0.00 0.00 80 1012.3
20260502070025 46 332 2.6 4.3 0.00 0.00 0.00 80 1012.3
20260502065519 47 324 1.7 3.5 0.00 0.00 0.00 79 1012.3
20260502065022 47 13 0.9 3.5 0.00 0.00 0.00 79 1012.2
20260502064518 47 349 0.9 3.5 0.00 0.00 0.00 79 1012.2
20260502064017 47 359 0.9 5.2 0.00 0.00 0.00 79 1012.2
20260502063516 47 15 1.7 3.5 0.00 0.00 0.00 79 1012.4
20260502063025 47 326 0.0 1.7 0.00 0.00 0.00 79 1012.7
20260502062514 47 344 0.0 0.9 0.00 0.00 0.00 78 1012.8
20260502062013 47 345 0.0 3.5 0.00 0.00 0.00 77 1012.8
20260502061513 47 18 0.9 3.5 0.00 0.00 0.00 77 1012.9
20260502061012 47 326 0.9 4.3 0.00 0.00 0.00 77 1013.0
20260502060512 48 348 1.7 4.3 0.00 0.00 0.00 77 1013.1
20260502060018 48 327 1.7 4.3 0.00 0.00 0.00 77 1013.1
20260502055511 48 325 0.9 3.5 0.00 0.00 0.00 77 1013.1
20260502055011 48 9 1.7 3.5 0.00 0.00 0.00 77 1013.2
20260502054522 48 350 0.0 4.3 0.00 0.00 0.00 76 1013.3
20260502054010 48 338 1.7 4.3 0.00 0.00 0.00 76 1013.2
20260502053510 48 6 0.0 2.6 0.00 0.00 0.00 76 1013.4
20260502053009 48 1 0.0 2.6 0.00 0.00 0.00 75 1013.4
20260502052509 48 16 0.0 1.7 0.00 0.00 0.00 75 1013.4
20260502052010 48 16 0.9 1.7 0.00 0.00 0.00 75 1013.4
20260502051509 48 333 0.0 6.1 0.00 0.00 0.00 74 1013.2
20260502051008 48 9 1.7 6.1 0.00 0.00 0.00 74 1013.3
20260502050508 48 304 0.0 1.7 0.00 0.00 0.00 73 1013.4
20260502050009 48 323 0.0 2.6 0.00 0.00 0.00 73 1013.1
20260502045507 48 323 0.0 2.6 0.00 0.00 0.00 73 1013.2
20260502045007 48 338 0.0 2.6 0.00 0.00 0.00 72 1013.3
20260502044506 48 338 0.0 2.6 0.00 0.00 0.00 73 1013.2
20260502044005 47 359 0.0 3.5 0.00 0.00 0.00 73 1013.0
20260502043504 46 338 1.7 3.5 0.00 0.00 0.00 74 1013.1
20260502043003 47 203 0.0 0.9 0.00 0.00 0.00 73 1013.2
20260502042502 47 203 0.0 0.9 0.00 0.00 0.00 72 1013.1
20260502042003 48 345 0.0 3.5 0.00 0.00 0.00 70 1013.2
20260502041600 48 345 0.9 3.5 0.00 0.00 0.00 70 1013.2
20260502041059 48 345 0.0 0.9 0.00 0.00 0.00 70 1013.2
20260502040558 47 345 0.0 0.9 0.00 0.00 0.00 70 1013.1
20260502040057 47 345 0.0 2.6 0.00 0.00 0.00 70 1013.2
20260502035600 47 345 0.0 2.6 0.00 0.00 0.00 71 1013.2
20260502035057 47 65 0.0 1.7 0.00 0.00 0.00 71 1013.2
20260502034557 46 65 0.0 1.7 0.00 0.00 0.00 72 1013.3
20260502034057 46 3 0.0 1.7 0.00 0.00 0.00 73 1013.2
20260502033556 47 124 0.0 1.7 0.00 0.00 0.00 72 1013.2
20260502033057 47 108 0.0 2.6 0.00 0.00 0.00 72 1013.0
20260502032556 47 114 0.9 2.6 0.00 0.00 0.00 71 1013.0
20260502032056 47 110 0.0 0.9 0.00 0.00 0.00 69 1013.1
20260502031556 47 111 0.0 0.9 0.00 0.00 0.00 69 1013.2
20260502031056 47 111 0.0 0.9 0.00 0.00 0.00 68 1013.0
20260502030555 48 110 0.0 0.9 0.00 0.00 0.00 67 1013.2
20260502030056 48 110 0.0 0.0 0.00 0.00 0.00 66 1013.3
20260502025554 49 111 0.0 0.0 0.00 0.00 0.00 66 1013.3
20260502025058 49 111 0.0 0.0 0.00 0.00 0.00 64 1013.4
20260502024554 49 110 0.0 0.9 0.00 0.00 0.00 61 1013.5
20260502024054 50 111 0.0 0.9 0.00 0.00 0.00 62 1013.5
20260502023556 50 110 0.0 1.7 0.00 0.00 0.00 60 1013.4
20260502023056 50 111 0.0 1.7 0.00 0.00 0.00 60 1013.4
20260502022556 50 143 0.0 1.7 0.00 0.00 0.00 60 1013.2
20260502022054 50 115 0.0 1.7 0.00 0.00 0.00 60 1013.2
20260502021553 50 165 0.0 1.7 0.00 0.00 0.00 59 1013.3
20260502021053 50 162 0.0 1.7 0.00 0.00 0.00 59 1013.2
20260502020553 50 142 0.0 2.6 0.00 0.00 0.00 59 1013.2
20260502020053 50 124 0.9 4.3 0.00 0.00 0.00 59 1013.1
20260502015551 50 126 0.9 4.3 0.00 0.00 0.00 59 1012.9
20260502015052 50 195 0.0 2.6 0.00 0.00 0.00 59 1012.9
20260502014552 50 195 0.0 3.5 0.00 0.00 0.00 59 1012.9
20260502014051 50 162 0.0 1.7 0.00 0.00 0.00 59 1012.8
20260502013551 50 168 0.0 0.9 0.00 0.00 0.00 59 1012.5
20260502013054 50 168 0.0 0.9 0.00 0.00 0.00 58 1012.4
20260502012551 51 160 0.0 0.9 0.00 0.00 0.00 57 1012.5
20260502012052 51 235 0.0 1.7 0.00 0.00 0.00 56 1012.4
20260502011551 51 242 0.0 1.7 0.00 0.00 0.00 54 1012.4
20260502011051 52 226 0.0 1.7 0.00 0.00 0.00 52 1012.4
20260502010550 52 244 0.0 2.6 0.00 0.00 0.00 50 1012.3
20260502010053 53 269 0.0 3.5 0.00 0.00 0.00 49 1012.3
20260502005550 53 261 0.9 2.6 0.00 0.00 0.00 49 1012.5
20260502005050 53 274 0.9 2.6 0.00 0.00 0.00 48 1012.4
20260502004604 52 278 0.0 2.6 0.00 0.00 0.00 48 1012.3
20260502004050 52 246 0.0 1.7 0.00 0.00 0.00 48 1012.4
20260502003549 53 232 0.0 0.9 0.00 0.00 0.00 48 1012.3
20260502003050 53 232 0.0 0.0 0.00 0.00 0.00 47 1012.2
20260502002549 54 232 0.0 0.9 0.00 0.00 0.00 46 1011.9
20260502002049 54 232 0.0 0.9 0.00 0.00 0.00 45 1011.8
20260502001549 55 232 0.0 0.9 0.00 0.00 0.00 43 1011.6
20260502001049 55 232 0.0 1.7 0.00 0.00 0.00 43 1011.6
20260502000549 55 232 0.0 2.6 0.00 0.00 0.00 41 1011.6
20260502000058 56 271 0.0 2.6 0.00 0.00 0.00 41 1011.7
20260501235548 56 270 0.0 2.6 0.00 0.00 0.00 40 1011.4
20260501235148 56 257 0.0 6.1 0.00 0.00 0.00 39 1011.4
20260501234548 57 268 1.7 6.1 0.00 0.00 0.00 39 1011.5
20260501234048 57 244 0.0 2.6 0.00 0.00 0.00 38 1011.4
20260501233550 57 241 0.0 5.2 0.00 0.00 0.00 39 1011.4
20260501233048 57 307 1.7 5.2 0.00 0.00 0.00 38 1011.3
20260501232547 57 300 0.9 5.2 0.00 0.00 0.00 38 1011.2
20260501232047 58 223 0.9 2.6 0.00 0.00 0.00 39 1011.2
20260501231547 58 261 0.0 4.3 0.00 0.00 0.00 37 1011.3
20260501231047 58 262 1.7 5.2 0.00 0.00 0.00 37 1011.4
20260501230547 59 320 1.7 5.2 0.00 0.00 0.00 37 1011.2
20260501230046 59 6 0.9 6.1 0.00 0.00 0.00 36 1011.3
20260501225547 59 105 2.6 9.6 0.00 0.00 0.00 36 1011.3
20260501225048 60 256 2.6 9.6 0.00 0.00 0.00 39 1011.2
20260501224545 60 307 2.6 9.6 0.00 0.00 0.00 38 1011.2
20260501224044 61 210 0.0 6.1 0.00 0.00 0.00 54 1011.2
20260501223544 60 156 1.7 6.1 0.00 0.00 0.00 52 1011.2
20260501223044 60 280 0.0 4.3 0.00 0.00 0.00 52 1011.1
20260501222544 61 232 0.9 6.1 0.00 0.00 0.00 50 1011.2
20260501222045 61 179 1.7 6.1 0.00 0.00 0.00 49 1011.3
20260501221544 61 193 0.9 4.3 0.00 0.00 0.00 51 1011.1
20260501221047 61 213 0.9 4.3 0.00 0.00 0.00 51 1011.1
20260501220544 61 203 0.9 4.3 0.00 0.00 0.00 50 1011.1
20260501220050 61 207 0.9 5.2 0.00 0.00 0.00 49 1011.2
20260501215545 61 198 1.7 4.3 0.00 0.00 0.00 49 1011.2
20260501215043 61 202 0.9 6.1 0.00 0.00 0.00 51 1011.1
20260501214542 61 127 1.7 6.1 0.00 0.00 0.00 49 1011.3
20260501214041 61 189 1.7 7.0 0.00 0.00 0.00 50 1011.2
20260501213540 61 179 1.7 7.0 0.00 0.00 0.00 51 1011.3
20260501213059 60 198 2.6 7.0 0.00 0.00 0.00 52 1011.2
20260501212541 60 204 2.6 7.8 0.00 0.00 0.00 53 1011.3
20260501212042 60 153 4.3 7.8 0.00 0.00 0.00 52 1011.2
20260501211540 61 142 1.7 6.1 0.00 0.00 0.00 52 1011.3
20260501211039 60 157 2.6 6.1 0.00 0.00 0.00 53 1011.3
20260501210539 59 172 3.5 6.1 0.00 0.00 0.00 53 1011.2
20260501210038 59 202 2.6 9.6 0.00 0.00 0.00 53 1011.3
20260501205539 59 181 1.7 5.2 0.00 0.00 0.00 53 1011.4
20260501205042 59 183 0.9 5.2 0.00 0.00 0.00 55 1011.4
20260501204542 59 155 0.0 9.6 0.00 0.00 0.00 54 1011.4
20260501204040 58 186 2.6 9.6 0.00 0.00 0.00 53 1011.4